Location: Gorze? G�rny
(49.8500°N, 19.5000°E)
Time: 02:11:04
(UTC+00:00)

Cosmos 1271 Rocket - Pass Details

Date: 13 May 2021
Orbit: 497 x 545 km, 81.2° (Epoch: 23 June)

Event Time Altitude Azimuth Distance (km) Brightness Sun altitude
Exits shadow 19:50:45 14° 173° (S) 1,574 4.6 -12.2°
Maximum altitude 19:54:04 56° 98° (E) 659 2.9 -12.5°
Drops below altitude 10° 19:58:00 10° 20° (NNE) 1,826 5.9 -12.9°
Sets 20:00:12 0° 16° (NNE) 2,722 6.9 -13.2°
